Theta_e
305 304 303 303 303 304 305 307 307 307 305 303 303 304 303 302 302 302 304 305 306 305 310 308 309 312 315 315 315 317 321 323 324 323 323 321 321 321 319 322 321 323 325 326 327
305 306 304 304 305 307 308 309 309 307 306 305 303 303 302 302 302 306 311 306 306 306 310 310 311 312 313 313 314 317 318 320 320 321 322 320 318 318 320 320 321 321 320 322 326
305 305 306 306 308 309 309 310 307 303 303 304 302 302 301 302 312 317 313 309 307 310 311 311 310 312 313 313 313 314 318 316 317 318 318 318 318 318 318 320 320 320 320 320 322
307 306 306 306 308 309 309 310 306 305 301 302 302 302 301 304 318 317 309 308 309 308 312 311 309 311 313 315 313 316 315 316 317 316 317 317 317 317 317 318 318 318 318 318 319
306 308 306 306 307 309 309 310 310 309 305 301 301 301 302 306 314 318 309 311 312 313 312 312 310 311 314 313 313 315 315 314 315 316 314 315 315 316 316 316 317 317 317 318 319
307 308 309 307 306 308 309 310 310 310 309 304 301 301 303 313 317 316 310 311 312 313 313 309 310 311 311 312 313 312 313 313 313 314 313 315 316 314 316 316 317 317 317 318 318
312 312 308 308 307 308 309 310 311 312 312 309 305 302 302 311 316 314 312 310 309 310 313 315 314 313 312 313 311 312 314 314 314 315 315 314 316 316 316 316 316 317 317 317 318
312 312 313 309 307 306 309 311 312 311 312 312 307 304 305 308 315 314 313 314 315 315 315 314 314 312 313 311 312 314 313 315 315 314 314 315 316 317 315 315 316 316 316 317 317
313 314 313 311 309 307 307 310 312 314 314 312 307 312 312 310 316 315 315 315 315 315 315 314 312 311 311 313 314 313 315 315 315 314 314 315 315 316 314 314 315 316 315 316 316
314 314 314 314 310 308 308 311 313 314 315 312 310 312 312 316 316 316 316 316 316 315 312 312 311 313 312 314 314 313 313 313 314 314 314 315 316 316 315 314 315 315 315 316 316
313 313 314 314 312 309 310 313 314 314 314 317 314 311 314 317 317 316 315 316 315 313 314 311 313 313 314 313 311 312 313 314 315 315 314 316 316 317 316 315 316 316 316 315 315
312 313 313 314 313 309 311 314 315 315 315 316 315 315 314 314 315 314 315 314 314 314 311 312 313 313 311 311 312 313 314 315 315 315 314 316 316 316 316 316 315 316 316 316 315
309 310 311 312 314 309 311 314 316 315 316 315 315 315 315 315 315 316 314 313 313 312 312 313 313 312 312 313 313 314 314 315 315 315 314 315 316 316 315 314 314 315 315 314 315
308 310 311 312 313 312 311 315 316 316 319 319 316 316 315 315 316 315 315 313 312 313 312 312 312 312 312 313 313 314 314 315 315 315 315 314 315 316 315 316 316 315 315 316 315
309 310 311 312 312 313 313 316 316 316 324 320 317 316 315 316 314 316 316 313 314 313 312 314 312 312 313 314 313 314 313 314 314 315 314 315 315 316 315 315 316 316 315 315 314
309 310 310 312 313 312 314 316 316 320 323 322 315 316 316 316 315 313 315 315 314 314 312 314 311 312 314 312 313 313 313 313 312 313 316 316 316 316 316 316 317 316 315 314 314
310 312 312 312 312 309 315 316 319 321 319 318 317 316 315 316 316 315 314 315 315 315 315 315 315 314 312 314 315 313 314 316 317 317 318 317 317 317 316 316 317 316 315 316 316
312 312 311 312 313 312 314 318 318 315 316 316 315 317 317 315 314 315 315 315 314 314 315 316 317 314 313 314 316 315 315 316 318 318 317 315 317 317 315 315 314 315 316 315 316
313 317 315 311 311 312 315 318 316 317 315 315 315 317 316 316 316 316 316 316 315 312 315 314 314 314 315 315 314 316 315 315 316 316 317 317 317 317 317 317 316 317 316 316 316
312 314 314 310 312 314 313 311 314 314 314 314 315 316 318 317 318 318 317 317 317 316 314 316 317 316 315 314 313 315 315 318 318 319 321 319 318 318 318 317 317 317 316 314 315
312 311 313 316 316 316 319 314 315 314 313 314 315 314 314 314 314 315 315 313 313 313 314 314 315 316 316 316 317 316 316 317 318 319 322 322 320 318 317 316 317 317 314 313 314
310 311 313 317 317 310 315 312 312 313 313 312 312 313 314 314 314 314 314 314 311 312 314 314 316 318 317 316 314 315 316 318 323 323 321 322 320 316 316 316 315 314 313 313 315
309 309 311 315 316 313 312 312 311 312 312 312 314 313 312 313 315 313 313 313 312 312 313 314 316 318 317 316 315 316 317 317 317 317 321 322 319 315 315 315 313 314 313 313 315
308 311 309 309 308 311 312 314 314 312 312 311 312 312 312 312 312 313 312 312 311 310 311 312 315 316 317 317 316 318 316 316 317 320 318 317 317 315 314 314 314 314 314 314 315
307 306 305 308 309 307 310 311 311 311 312 311 312 313 311 313 312 313 311 310 309 309 309 311 315 314 313 313 312 312 312 312 312 314 317 315 314 313 313 314 315 314 313 313 314
307 307 305 306 306 308 308 309 310 311 311 312 312 311 310 311 310 313 310 309 310 309 310 312 313 312 312 310 310 310 310 310 311 312 314 313 312 312 313 312 313 313 312 311 312
305 305 305 306 306 307 309 309 309 309 308 309 310 309 310 310 308 307 306 308 309 309 310 310 311 311 311 309 310 312 311 311 311 311 313 314 314 314 314 314 313 311 310 310 310
Wind_Speed
19 16 14 12 12 11 11 10 11 10 10 9 9 9 10 11 11 15 16 10 8 14 9 13 14 13 11 10 6 7 5 9 9 6 3 1 3 2 8 5 11 8 5 5 6
21 19 15 12 11 10 10 12 12 11 10 9 8 8 8 9 13 13 4 6 10 15 13 13 15 15 7 7 6 5 5 8 3 4 3 2 4 7 5 9 7 8 10 13 9
23 21 18 12 10 11 12 12 12 11 9 7 6 6 5 7 5 1 0 5 9 16 14 11 14 11 6 6 5 4 7 5 5 9 7 4 6 4 6 9 5 8 15 12 14
26 22 18 14 11 11 11 12 12 12 9 5 4 4 4 3 3 1 0 8 12 15 14 13 13 7 5 7 5 5 7 8 6 8 8 12 6 4 9 16 16 17 17 17 16
27 24 19 15 12 11 10 10 11 11 10 6 4 4 4 4 2 2 3 12 11 13 13 11 12 7 6 6 7 6 4 6 10 11 12 12 12 10 8 15 13 12 13 14 14
29 26 20 16 13 12 11 10 9 9 9 7 4 4 4 3 2 4 6 10 10 12 12 12 10 7 6 4 6 5 5 7 7 11 8 8 14 4 5 13 16 13 11 11 13
30 33 25 17 12 11 11 10 11 10 8 8 6 5 6 4 2 6 8 9 12 12 12 7 8 5 8 5 3 3 4 4 10 6 6 7 11 7 9 8 12 11 12 11 10
29 32 33 22 14 10 10 11 13 14 10 7 6 5 5 6 5 8 10 8 7 6 5 1 5 3 1 7 3 3 2 5 2 3 4 8 13 9 5 2 6 9 10 12 11
29 32 32 30 16 10 8 10 15 9 6 6 4 3 4 8 9 8 8 5 5 3 5 3 6 3 4 4 3 0 6 7 6 4 2 6 1 4 6 2 5 7 10 12 11
28 31 32 32 20 10 9 11 8 6 4 5 6 4 4 4 6 10 11 9 2 2 7 4 3 3 3 5 5 4 4 4 6 1 2 8 10 11 12 6 8 7 10 11 13
28 31 30 30 24 10 7 7 4 2 6 9 3 6 4 3 6 10 15 10 4 2 3 2 5 8 9 5 2 1 4 8 10 10 6 11 11 12 12 10 12 11 7 11 13
29 30 30 28 26 9 6 2 3 7 9 14 16 19 18 6 1 7 15 8 5 6 4 3 11 10 4 5 5 5 6 9 10 11 6 10 12 10 10 12 13 12 11 13 13
31 32 30 28 22 7 5 3 6 9 5 5 7 10 15 12 6 10 15 11 5 7 8 9 3 5 10 6 6 6 7 5 7 4 4 7 11 10 8 10 13 16 16 16 14
35 34 33 27 10 11 4 4 7 6 3 3 4 3 12 8 5 15 17 12 4 9 7 8 7 10 8 9 11 11 13 12 9 6 11 2 10 11 9 11 10 14 14 15 19
35 34 28 20 15 9 4 2 6 1 4 2 3 7 12 9 2 5 20 13 10 7 6 3 5 8 9 15 10 9 4 5 7 9 5 10 7 12 6 11 14 15 19 15 15
38 31 22 12 9 3 7 2 2 2 3 2 4 4 6 7 1 4 6 8 4 8 7 12 2 4 6 3 9 3 7 3 2 5 12 15 12 8 11 12 14 12 11 13 16
40 24 11 4 2 9 7 5 1 3 5 3 3 0 4 5 6 4 6 10 9 5 9 9 15 10 9 12 12 7 9 7 7 8 13 9 13 14 10 13 16 12 14 15 16
34 13 6 3 8 12 7 2 3 2 2 4 4 6 1 3 1 2 4 6 4 8 11 7 9 7 7 13 11 8 8 9 10 8 9 1 8 6 7 11 8 5 11 13 13
19 16 15 7 9 10 4 2 1 1 4 6 5 2 1 5 5 7 6 3 3 4 5 4 5 2 6 11 8 12 9 8 13 6 7 9 12 9 9 6 3 7 11 15 15
18 6 19 11 8 5 2 1 1 2 5 3 2 4 1 2 2 9 8 11 9 10 5 3 9 5 4 2 4 7 5 4 5 8 15 8 7 7 7 7 3 7 11 21 19
11 4 15 2 4 4 2 2 3 7 7 3 1 2 4 3 2 2 5 4 2 7 9 5 4 10 6 6 13 7 6 3 4 3 7 12 7 3 1 1 6 6 16 18 22
9 2 14 2 3 2 2 5 8 9 7 5 3 4 1 2 3 2 6 4 4 8 8 4 4 8 13 9 4 5 8 4 7 5 4 6 9 1 2 3 7 19 19 22 15
11 6 11 3 2 3 3 4 8 11 8 6 4 3 3 3 3 10 10 11 10 7 3 3 3 4 4 5 4 8 7 1 3 2 7 7 6 6 6 16 19 18 24 20 12
7 4 8 12 7 4 5 3 6 7 5 7 4 3 2 7 6 4 4 6 10 11 9 4 5 11 12 7 2 3 7 6 5 4 12 13 21 20 16 14 17 18 15 14 10
9 3 4 4 4 6 3 3 7 5 2 3 3 6 4 4 4 6 10 12 12 15 16 4 5 9 13 15 14 15 18 17 19 19 18 21 22 20 19 12 11 12 13 16 10
4 4 3 2 5 4 2 4 7 7 6 3 3 2 4 4 6 5 10 9 8 6 5 11 4 6 12 12 17 20 19 19 19 19 19 20 23 15 6 8 10 11 13 16 17
5 4 1 2 4 3 2 4 6 9 6 9 8 5 8 11 14 16 20 25 19 12 8 7 7 6 12 7 6 10 13 14 10 10 10 12 9 5 9 9 13 17 20 22 23
Wind_Direction
359 354 344 338 337 337 336 335 328 320 307 296 283 276 276 276 276 273 269 255 228 214 180 177 183 184 183 181 165 152 200 213 214 192 181 121 16 140 332 313 335 337 309 290 230
5 1 357 351 349 349 343 339 332 323 313 305 299 284 277 283 286 280 259 230 212 184 170 169 167 167 158 162 167 187 217 214 217 206 226 231 315 335 311 303 296 308 353 341 253
5 3 358 358 358 354 349 347 342 337 327 312 302 286 278 303 291 144 336 195 172 162 165 164 160 157 156 160 168 155 224 195 223 234 263 269 280 266 284 289 252 294 306 308 304
3 359 358 350 347 349 349 349 355 352 347 325 293 273 284 288 139 83 99 170 155 169 160 157 156 146 150 170 170 198 219 213 229 231 257 269 281 272 254 265 277 280 286 288 287
6 358 353 349 339 338 342 347 352 357 354 339 311 281 300 270 256 49 104 168 173 175 178 171 161 151 176 168 155 207 221 218 242 248 255 265 259 256 256 279 287 286 286 274 266
13 6 356 349 338 331 329 335 342 345 346 339 316 298 294 261 74 120 105 164 178 176 179 171 177 163 127 146 193 190 223 257 261 247 239 244 266 196 248 291 285 291 294 295 266
18 13 359 347 339 326 321 324 329 330 326 325 310 292 273 210 149 145 136 121 128 142 146 154 153 161 146 144 157 150 251 264 241 244 243 194 259 244 258 275 277 288 293 300 304
9 7 6 349 336 325 317 315 319 313 297 303 299 292 245 204 202 171 164 151 146 153 125 163 152 142 122 125 74 197 217 246 175 199 249 203 263 274 268 311 295 314 314 302 298
1 2 1 356 337 325 314 316 317 313 271 278 274 279 259 202 205 180 183 177 158 143 174 156 143 132 133 161 185 115 244 236 284 205 235 220 297 310 296 280 292 315 321 315 307
351 353 357 356 339 326 311 323 318 306 251 266 259 284 226 172 200 220 207 197 164 72 114 145 110 162 129 196 236 178 213 226 253 111 211 282 287 286 280 279 291 295 305 306 306
341 346 348 349 343 315 307 326 345 318 251 228 245 253 272 237 206 195 199 199 199 100 170 59 216 218 222 210 167 209 261 275 277 278 303 283 282 279 282 290 288 292 278 295 297
334 334 338 344 342 300 279 265 297 307 291 276 253 251 243 241 267 179 195 175 166 197 139 195 241 233 202 197 219 233 267 271 284 278 205 276 272 269 272 278 276 285 273 274 274
330 329 328 336 338 311 251 234 313 325 278 283 235 232 231 217 224 200 186 190 181 179 196 224 195 172 194 203 225 231 223 233 259 314 236 278 272 261 249 247 259 265 280 285 278
328 326 320 324 330 325 239 215 319 316 297 246 217 213 170 167 222 212 197 184 189 224 187 246 231 222 209 230 214 246 214 242 259 264 277 231 285 264 257 250 252 264 262 263 286
330 327 314 310 304 295 204 262 316 359 302 122 121 153 167 190 134 183 199 196 199 176 190 206 178 186 209 233 189 261 186 252 263 264 266 247 259 276 223 247 253 257 262 268 280
330 328 308 296 300 225 194 275 139 229 251 66 120 158 159 215 249 121 171 203 217 214 222 257 244 253 249 175 198 285 277 269 195 252 253 258 248 262 256 258 275 266 262 279 292
338 332 309 274 152 156 168 156 195 230 343 29 20 167 223 200 219 213 164 188 213 194 228 242 245 245 228 261 250 239 272 276 253 230 259 280 262 263 259 255 267 293 303 307 311
348 6 42 72 171 158 138 114 210 4 1 356 337 316 266 29 97 180 177 216 218 239 271 258 265 209 188 215 257 229 243 255 268 260 274 218 255 264 251 274 266 341 341 334 327
5 47 38 47 147 159 145 163 251 20 334 327 319 278 76 49 49 12 3 328 48 172 227 211 244 276 263 273 247 258 233 271 261 260 262 251 256 264 247 252 352 352 0 353 343
353 33 27 80 105 112 89 245 302 339 331 299 266 11 166 18 343 351 344 354 333 355 7 285 279 253 284 241 179 227 154 210 213 269 269 248 267 259 263 266 326 335 350 344 331
8 54 6 90 57 59 72 19 335 2 358 328 311 110 95 48 347 244 208 76 32 353 343 328 252 247 316 252 269 244 228 229 284 238 265 280 263 122 255 266 315 342 327 330 328
17 50 10 63 36 38 54 334 348 351 5 19 35 36 221 124 341 333 264 237 350 359 325 352 293 256 257 269 288 256 274 258 231 230 248 285 272 8 351 352 339 320 320 318 323
359 332 9 46 45 31 358 7 20 18 359 4 249 357 3 181 212 250 250 247 304 333 274 295 225 263 251 241 253 257 253 213 21 47 217 257 263 164 311 324 323 322 316 312 307
14 356 11 52 50 14 2 339 319 349 356 2 338 322 221 236 200 272 268 309 292 262 255 126 256 245 261 293 318 288 273 249 220 240 274 253 278 286 299 312 317 325 335 330 323
27 61 15 351 9 343 322 320 298 301 261 262 264 230 197 240 238 232 258 269 277 277 265 222 248 256 265 265 267 265 258 259 250 254 256 276 283 291 298 305 306 309 322 333 312
40 3 2 352 322 353 1 317 304 310 354 310 243 295 294 236 227 265 290 281 266 256 221 161 260 253 267 268 266 267 262 258 256 257 258 270 276 299 290 287 295 307 319 315 303
17 9 12 333 353 327 336 332 325 346 303 258 298 298 268 276 277 280 275 265 256 258 250 209 240 256 276 282 296 264 264 242 241 245 255 262 290 309 297 300 313 310 305 299 296